Location: Les Jeannots
(43.2262°N, 5.5774°E)
Time: 02:50:10
(UTC+00:00)

Cosmos 2369 Rocket - Pass Details

Date: 05 July 2020
Orbit: 830 x 851 km, 71.0° (Epoch: 04 August)

Event Time Altitude Azimuth Distance (km) Brightness Sun altitude
Rises 23:38:28 0° 339° (NNW) 3,382 6.5 -24.1°
Reaches altitude 10° 23:41:00 10° 345° (NNW) 2,446 5.6 -24.1°
Maximum altitude 23:46:26 49° 60° (ENE) 1,072 2.9 -24.1°
Enters shadow 23:48:43 31° 115° (ESE) 1,419 3.1 -24.1°
